Regional Weather Roundup
Issued by NWS

Home | Current Version | Previous Version | Text Only | Print | Product List | Glossary Off
Versions: 1 2 3 4 5 6 7 8 9 10 11 12 13 14 15 16 17 18 19 20 21 22 23 24 25 26 27 28 29 30 31 32 33 34 35 36 37 38 39 40 41 42 43 44 45 46 47 48 49 50

000
ASUS43 KLSX 171157
RWRMO

WEATHER SUMMARY FOR MISSOURI
NATIONAL WEATHER SERVICE SPRINGFIELD MO
600 AM CST SUN DEC 17 2017

NOTE: "FAIR" INDICATES FEW OR NO CLOUDS BELOW 12,000 FEET WITH NO
       SIGNIFICANT WEATHER AND/OR OBSTRUCTIONS TO VISIBILITY.
       CURRENT SKY AND/OR WEATHER CONDITIONS ARE NOT AVAILABLE FOR
       CHILLICOTHE AND FARMINGTON.

MOZ001>031-035>038-043-044-053-054-171300-
...NORTHERN AND WESTERN MISSOURI...

CITY           SKY/WX    TMP DP  RH WIND       PRES   REMARKS
KANSAS CTY INT LGT RAIN  43  40  89 SW8       30.00R
6HR MIN TEMP:  43; 6HR MAX TEMP:  49; 6HR PCP:  0.01;

LEE`S SUMMIT   LGT RAIN  43  43 100 SW8       30.00R
6HR MIN TEMP:  43; 6HR MAX TEMP:  48; 6HR PCP:  0.04;

ST JOSEPH      LGT RAIN  43  38  82 SW9       30.00R
6HR MIN TEMP:  35; 6HR MAX TEMP:  45; 6HR PCP:  0.01;

CHILLICOTHE      N/A     47  28  47 S8        30.00R
6HR MIN TEMP:  43; 6HR MAX TEMP:  47;


$$
MOZ066>068-077>081-088>096-101>105-171300-
...SOUTHWEST MISSOURI...

CITY           SKY/WX    TMP DP  RH WIND       PRES   REMARKS
SPRINGFIELD    LGT RAIN  42  41  96 SW8       30.01R FOG
6HR MIN TEMP:  41; 6HR MAX TEMP:  48; 6HR PCP:  0.36;

JOPLIN         LGT RAIN  42  42 100 S7        30.03R
6HR MIN TEMP:  42; 6HR MAX TEMP:  46; 6HR PCP:  0.37;


$$
MOZ032>034-039>042-045>050-055>058-069>072-171300-
...CENTRAL MISSOURI...

CITY           SKY/WX    TMP DP  RH WIND       PRES   REMARKS
COLUMBIA       NOT AVBL
JEFFERSON CITY LGT RAIN  45  33  63 E5        30.03F
6HR MIN TEMP:  43; 6HR MAX TEMP:  48; 6HR PCP:  0.01;

ROLLA          CLOUDY    44  30  57 S9        30.02F
6HR MIN TEMP:  44; 6HR MAX TEMP:  46;

SEDALIA        LGT RAIN  44  42  93 SW6       30.02R
6HR MIN TEMP:  44; 6HR MAX TEMP:  50; 6HR PCP:  0.02;

WARRENSBURG    LGT RAIN  41  37  87 S5        30.01S

$$
MOZ051-052-059>065-171300-
...EAST CENTRAL MISSOURI...

CITY           SKY/WX    TMP DP  RH WIND       PRES   REMARKS
ST LOUIS INTL  CLOUDY    45  30  55 S5        30.06S
6HR MIN TEMP:  42; 6HR MAX TEMP:  46;


$$
MOZ072>076-082>087-097>100-106>115-171300-
...SOUTH CENTRAL AND SOUTHEAST MISSOURI...

CITY           SKY/WX    TMP DP  RH WIND       PRES   REMARKS
CAPE GIRARDEAU LGT RAIN  40  37  89 SE9       30.10F
6HR MIN TEMP:  40; 6HR MAX TEMP:  45; 6HR PCP:  0.03;

POPLAR BLUFF   LGT RAIN  42  41  96 S6        30.12F FOG
6HR MIN TEMP:  41; 6HR MAX TEMP:  45; 6HR PCP:  0.13;

WEST PLAINS    LGT RAIN  40  39  97 SE6       30.05R FOG
6HR MIN TEMP:  40; 6HR MAX TEMP:  45; 6HR PCP:  0.15;


$$



USA.gov is the U.S. government's official web portal to all federal, state and local government web resources and services.